Location: Benque
(43.2594°N, 0.9178°E)
Time: 18:38:04
(UTC+00:00)

Cosmos 2297 Rocket - Pass Details

Date: 24 January 2020
Orbit: 838 x 845 km, 71.0° (Epoch: 25 February)

Event Time Altitude Azimuth Distance (km) Brightness Sun altitude
Rises 19:21:29 0° 248° (WSW) 3,388 6.5 -26.2°
Reaches altitude 10° 19:24:35 10° 265° (W) 2,458 5.6 -26.7°
Maximum altitude 19:28:40 20° 312° (NW) 1,849 4.4 -27.5°
Drops below altitude 10° 19:32:48 10° 359° (N) 2,471 4.6 -28.2°
Enters shadow 19:33:37 - 4° (N) 2,699 4.8 -28.4°
